Tracking 19224 objects as of 22-Jul-2018
HD Live streaming from Space Station
objects crossing your sky now

FENGYUN 1C DEB

Track FENGYUN 1C DEB now!
10-day predictions


NORAD ID: 32343
Int'l Code: 1999-025CYL
Perigee: 731.7 km
Apogee: 961.1 km
Inclination: 98.7 °
Period: 101.7 minutes
Semi major axis: 7217 km
RCS: 0.0118 m2 (small)
Launch date: May 10, 1999
Source: People's Republic of China (PRC)
Launch site: Taiyaun Space Center, China (TSC)

Note: This is SATELLITE DEBRIS
aabbcc
Your satellite tracking list
Your tracking list is empty




NASA's NSSDC Master Catalog

Two Line Element Set (TLE):
1 32343U 99025CYL 18202.92565742  .00000051  00000-0  42826-4 0  9995
2 32343  98.6947 240.4420 0158934 339.2319  20.2445 14.15887751573612
Source of the keplerian elements: AFSPC